Hlavní strana
METAR-TAF:

METAR-TAF

Letiště :

Edenton, Severní Karolína, Spojené státy americké

zeměpisná šířka: 36-01-40N, zeměpisná délka: 076-34-02W, výška: 6 m

Aktuální stav počasí

Zpráva byla vytvořena před 11 minutami, v 22:55 UTC
Západní vítr 8 kt s nárazy do 15 kt
Teplota 20°C
Vlhkost vzduchu 64%
Tlak 1000 hPa
Viditelnost: 16.1 km
Jasno

METAR: KEDE 302255Z AUTO 26008G15KT 10SM CLR 20/13 A2952 RMK AO2 T02040131

Čas: 18:06 (23:06 UTC)


TAF: chybějící

Stav a předpovědi počasí z více než 4 000 letišť (zprávy METAR a TAF).

Červené a žluté tečky na mapě představují dostupné meteorologické stanice.

Když kurzor umístíte na tečku, zobrazí se název stanice.

Pak kliknutím zobrazíte stav a předpověď počasí.

Chcete-li změnit mapu, kliknutím na zelené tlačítko se znaménkem +mapu přiblížíte, kliknutím na zelené tlačítko se znaménkem – mapu oddálíte a kliknutím na zelené šipky přejdete na sousední mapy.


METAR-TAF: